Regional Weather Roundup
Issued by NWS

Home | Current Version | Previous Version | Graphics & Text | Print | Product List | Glossary On
Versions: 1 2 3 4 5 6 7 8 9 10 11 12 13 14 15 16 17 18 19 20 21 22 23 24 25 26 27 28 29 30 31 32 33 34 35 36 37 38 39 40 41 42 43 44 45 46 47 48 49 50
000
ASUS43 KMKX 191511
RWRWI

WISCONSIN REGIONAL WEATHER ROUNDUP
NATIONAL WEATHER SERVICE MILWAUKEE/SULLIVAN WI
1000 AM CDT SUN APR 19 2015

NOTE: "FAIR" INDICATES FEW OR NO CLOUDS BELOW 12,000 FEET WITH NO
SIGNIFICANT WEATHER AND/OR OBSTRUCTIONS TO VISIBILITY.

WIZ001-002-006>008-014>016-023>028-191600-
NORTHWEST WISCONSIN

CITY           SKY/WX    TMP DP  RH WIND       PRES   REMARKS
SUPERIOR ARPT  RAIN      37  37  99 NE12G17   29.73F WCI  30
ASHLAND        CLOUDY    46  42  86 E3        29.75F
HAYWARD        LGT RAIN  48  36  63 S9G16     29.72F
SIREN          DRIZZLE   44  41  88 S10       29.70F
CUMBERLAND     CLOUDY    45  36  70 SE9       29.71F
RICE LAKE      DRIZZLE   47  37  67 SE13      29.74F
CHETEK         CLOUDY    49  35  58 SE7G16    29.73F
LADYSMITH      CLOUDY    51  33  49 SE8       29.77F
EAU CLAIRE     CLOUDY    51  36  56 SE9       29.73F
MENOMONIE      CLOUDY    51  38  60 SE8       29.73F
NEW RICHMOND   CLOUDY    50  39  66 SE9       29.70F
OSCEOLA        CLOUDY    49  42  77 SE7       29.72F
$$

WIZ003>005-009-010-017-018-191600-
NORTH CENTRAL WISCONSIN

CITY           SKY/WX    TMP DP  RH WIND       PRES   REMARKS
MANITOWISH WTR CLOUDY    47  32  54 S16       29.78F
ARBOR VITAE    CLOUDY    49  32  51 SE15G22   29.79F
WOODRUFF       CLOUDY    49  32  51 SE15G22   29.79F
RHINELANDER    CLOUDY    50  28  42 SE13G23   29.82F
EAGLE RIVER    CLOUDY    49  29  46 SE12G17   29.82F
LAND O LAKES   CLOUDY    46  30  53 SE13G21   29.82F
PHILLIPS       CLOUDY    49  32  52 SE9       29.76F
TOMAHAWK       PTSUNNY   51  30  44 SE5       29.81F
MEDFORD        CLOUDY    48  32  53 SE13G18   29.78F
MERRILL        MOSUNNY   52  31  44 SE15G21   29.81F
$$

WIZ029-030-035-036-043>047-191600-
CENTRAL WISCONSIN

CITY           SKY/WX    TMP DP  RH WIND       PRES   REMARKS
WAUSAU         MOSUNNY   53  31  42 SE14      29.79F
MOSINEE        MOSUNNY   54  32  43 SE13G18   29.82F
MARSHFIELD     CLOUDY    53  31  42 SE14      29.79F
STEVENS POINT  PTSUNNY   54  32  43 E13G20    29.82F
WAUPACA        MOSUNNY   58  31  37 E10       29.84F
WAUTOMA        MOSUNNY   59  31  34 SE12      29.81F
WISC RAPIDS    CLOUDY    55  30  38 SE7       29.81F
CAMP DOUGLAS   CLOUDY    55  34  44 SE9       29.77F
$$

WIZ011>013-019>022-031-037>040-048>050-191600-
NORTHEAST WISCONSIN

CITY           SKY/WX    TMP DP  RH WIND       PRES   REMARKS
ANTIGO         PTSUNNY   48  31  52 SE17G23   29.84F
SHAWANO        CLOUDY    54  31  42 SE14      29.88F
OCONTO         CLOUDY    45  37  73 E5        29.90F
STURGEON BAY   PTSUNNY   46  28  49 SE8G20    29.94S
GREEN BAY      PTSUNNY   52  32  46 SE14      29.88F
MANITOWOC      PTSUNNY   49  32  52 S16       29.89F
APPLETON       PTSUNNY   52  30  43 SE12      29.86F
CLINTONVILLE   PTSUNNY   52  32  46 SE10G17   29.86F
OSHKOSH        MOSUNNY   55  32  41 SE15      29.83F
$$

WIZ032>034-041-042-053>061-191600-
SOUTHWEST WISCONSIN

CITY           SKY/WX    TMP DP  RH WIND       PRES   REMARKS
LA CROSSE      CLOUDY    58  38  47 SE8       29.74F
SPARTA         CLOUDY    54  35  47 CALM      29.77F
VIROQUA        CLOUDY    54  34  46 SE10      29.76F
BOSCOBEL       CLOUDY    59  35  40 CALM      29.76F
PRAIRIE DU CHI CLOUDY    56  36  47 SE8       29.75F
PLATTEVILLE    MOSUNNY   60  39  46 SE10      29.75F
$$

WIZ056-057-062-063-064-067-068-191600-
SOUTH CENTRAL WISCONSIN

CITY           SKY/WX    TMP DP  RH WIND       PRES   REMARKS
REEDSBURG      CLOUDY    58  36  43 CALM      29.77F
BARABOO/DELLS  PTSUNNY   59  33  37 SE7       29.77F
LONE ROCK      CLOUDY    60  38  43 MISG      29.76F
MINERAL POINT  CLOUDY    61  34  36 SE12      29.76F
MADISON        CLOUDY    61  35  37 SE13      29.78F
MIDDLETON      MOSUNNY   61  33  35 SE8       29.78F
WATERTOWN      SUNNY     60  35  39 SE15      29.80F
MONROE         MOSUNNY   63  41  45 E9G20     29.76F
JANESVILLE     SUNNY     64  34  32 SE13      29.77F
$$

WIZ051-052-058>065-066-070>072-191600-
SOUTHEAST WISCONSIN

CITY           SKY/WX    TMP DP  RH WIND       PRES   REMARKS
MILWAUKEE      PTSUNNY   50  33  52 E9        29.85F
WAUKESHA       PTSUNNY   54  34  47 E12G23    29.85F
MILWAUKEE/TIMM SUNNY     52  27  37 E12       29.86F
RACINE         MOSUNNY   51  32  48 E9        29.86F
BURLINGTON     MOSUNNY   57  31  37 SE13G20   29.81F
KENOSHA        MOSUNNY   55  33  43 E13       29.83F
FOND DU LAC    MOSUNNY   56  32  40 SE18G24   29.83F
SHEBOYGAN      PTSUNNY   52  31  44 SE13      29.89F
WEST BEND      MOSUNNY   52  30  43 SE12      29.86F
JUNEAU         MOSUNNY   57  33  41 SE16      29.82F
$$

LSZ147-162-191600-
LAKE SUPERIOR

STATION/POSITION TIME  TEMP    WIND        PRES    WAVE
                       AIR SEA DIR/SP/G            HT/PER
                 (UTC) (F)     (DEG/KT/KT) (MB)    (FT/S)
DEVILS ISLAND    1500   37      70/ 16/ 19 1008.5F
PORT WING        1400   38      40/ 12/ 15 1008.1
SAXON HARBOR     1420   48     140/  1/ 10 1007.1F
$$

LMZ867-665-643>646-191600-
LAKE MICHIGAN

STATION/POSITION TIME  TEMP    WIND        PRES    WAVE
                       AIR SEA DIR/SP/G            HT/PER
                 (UTC) (F)     (DEG/KT/KT) (MB)    (FT/S)
CHAMBERS ISLAND  1400   45      60/  8/ 11 1014.2F
NORTHPORT PIER   1400   39      80/ 10/ 13 1014.9F
SISTER BAY       1447   49     120/ 13/ 20   N/A
KEWAUNEE LAKESHO 1400   42      50/  3/  6 1012.6F
SHEBOYGAN LAKESH 1500   45     210/  5/  7 1012.6F
PORT WASHINGTON  1440   46      80/  4/  5 1012.9F
MILWAUKEE LAKESH 1400   43      40/  8/  9   N/A
KENOSHA   LAKESH 1500   44      40/  7/  8 1010.5F
$$

TC  - TEMPERATURE IN CELSIUS
VSB - VISIBILITY IN STATUTE MILES
WCI - WIND CHILL INDEX
HX  - HEAT INDEX



USA.gov is the U.S. government's official web portal to all federal, state and local government web resources and services.